Temperature
9 9 8 8 8 8 8 7 7 7 6 6 6 6 5 5 5 5 5 5 5 4 4 4 3 2 2 1 1 1 1 1 0 0 0 0 1 1 1 1 1 2 2
9 9 8 8 8 7 7 7 7 6 6 6 6 5 5 5 5 4 4 4 4 4 4 3 3 2 1 1 0 0 0 0 -0 -0 -0 -0 -0 0 0 0 1 1 1
9 9 8 8 8 7 7 7 6 6 6 6 5 5 5 5 4 4 4 4 4 3 3 3 2 1 0 -0 -1 -1 -1 -0 -1 -1 -1 -1 -0 -0 -0 -0 0 0 0
9 9 8 8 8 7 7 7 6 6 6 6 5 5 5 4 4 4 4 3 3 3 3 2 2 1 -0 -1 -1 -1 -1 -1 -1 -1 -1 -1 -1 -1 -1 -1 -0 -0 0
9 9 9 8 8 7 7 7 6 6 6 5 5 5 4 4 4 3 3 3 3 3 2 2 1 1 -0 -1 -2 -2 -2 -2 -2 -2 -2 -2 -1 -1 -1 -1 -1 -1 -0
10 9 9 8 8 7 7 7 6 6 6 5 4 4 4 4 4 3 3 3 3 2 2 1 1 1 0 -1 -2 -2 -2 -2 -2 -2 -2 -2 -2 -2 -2 -1 -1 -1 -1
10 10 9 8 8 8 8 7 6 6 5 5 4 3 3 3 3 3 3 3 3 2 2 1 0 -0 -0 -1 -2 -2 -3 -3 -3 -3 -3 -3 -2 -2 -2 -2 -1 -1 -1
10 10 9 9 8 8 7 7 6 6 5 5 4 3 2 2 3 3 3 2 2 2 1 1 -0 -1 -1 -2 -2 -2 -3 -4 -4 -3 -3 -3 -3 -3 -2 -2 -2 -2 -1
10 10 10 9 9 8 8 7 7 6 5 5 4 3 2 2 1 1 1 1 1 1 1 0 -0 -1 -2 -3 -3 -3 -4 -4 -4 -4 -4 -4 -3 -3 -3 -2 -2 -2 -2
9 9 9 9 8 8 8 7 6 6 5 4 3 3 3 2 1 0 -1 -1 -0 -0 0 -0 -1 -1 -2 -3 -3 -4 -4 -5 -5 -5 -4 -4 -4 -4 -3 -3 -3 -2 -2
8 8 8 8 7 7 7 6 5 5 4 4 4 3 2 1 0 -0 -1 -1 -1 -1 -1 -1 -1 -2 -2 -3 -4 -4 -5 -5 -5 -5 -5 -5 -5 -4 -4 -4 -3 -3 -3
7 7 7 6 6 6 5 5 4 3 3 3 3 2 2 1 1 0 -0 -0 -1 -1 -2 -2 -2 -2 -3 -3 -4 -4 -5 -5 -5 -5 -5 -5 -5 -5 -5 -5 -4 -4 -4
6 6 5 5 5 5 4 3 2 2 2 2 2 2 1 2 2 1 0 -1 -2 -2 -3 -3 -2 -2 -3 -4 -4 -5 -5 -5 -5 -5 -6 -6 -6 -6 -6 -6 -5 -5 -5
5 5 5 5 4 4 3 2 1 1 1 0 0 0 0 0 0 0 -0 -1 -3 -4 -4 -3 -2 -2 -3 -4 -4 -5 -5 -6 -6 -6 -6 -6 -6 -6 -6 -6 -6 -6 -5
6 5 5 4 4 4 3 2 1 1 -0 -1 -1 -1 -1 -1 -1 -1 -1 -1 -3 -5 -5 -3 -3 -2 -3 -4 -4 -5 -6 -6 -6 -6 -6 -6 -6 -6 -6 -6 -6 -6 -6
6 5 5 4 4 3 3 1 1 0 -1 -1 -2 -2 -2 -2 -2 -2 -2 -2 -3 -4 -5 -4 -3 -2 -3 -4 -4 -6 -6 -6 -7 -6 -6 -6 -6 -6 -6 -6 -6 -6 -6
7 6 5 5 4 3 2 1 0 -1 -1 -2 -3 -3 -3 -3 -3 -3 -3 -3 -3 -4 -5 -5 -4 -3 -4 -4 -4 -5 -6 -6 -6 -7 -7 -7 -7 -7 -6 -6 -6 -6 -6
7 6 5 4 4 3 2 1 0 -1 -2 -2 -3 -3 -4 -4 -4 -4 -4 -4 -4 -4 -5 -5 -5 -4 -4 -5 -5 -6 -6 -7 -7 -7 -7 -7 -7 -7 -7 -7 -7 -7 -7
6 6 5 4 4 3 2 1 0 -1 -2 -2 -3 -4 -4 -4 -4 -5 -5 -4 -4 -4 -5 -6 -6 -5 -5 -5 -6 -7 -7 -7 -7 -7 -7 -7 -7 -7 -7 -7 -7 -7 -7
6 5 5 4 3 2 1 1 -0 -1 -2 -3 -4 -4 -5 -5 -5 -5 -5 -5 -4 -5 -5 -6 -7 -7 -6 -6 -7 -7 -7 -7 -7 -7 -7 -7 -7 -7 -7 -7 -7 -7 -7
5 5 4 4 3 2 1 0 -1 -2 -2 -3 -4 -5 -5 -6 -6 -6 -6 -5 -5 -5 -6 -6 -7 -7 -7 -7 -7 -7 -8 -8 -8 -8 -8 -8 -8 -8 -8 -8 -8 -8 -8
4 4 3 3 2 2 1 -1 -2 -3 -3 -4 -4 -5 -6 -6 -7 -6 -6 -6 -6 -6 -6 -6 -7 -7 -7 -7 -7 -7 -8 -8 -8 -7 -8 -8 -8 -8 -9 -9 -9 -9 -9
3 3 2 2 1 1 -0 -2 -3 -4 -5 -5 -5 -6 -7 -7 -7 -7 -6 -6 -6 -6 -6 -6 -7 -7 -7 -7 -7 -7 -7 -8 -8 -8 -8 -8 -9 -9 -9 -9 -9 -9 -9
1 1 1 1 0 0 -1 -2 -4 -5 -5 -5 -6 -6 -7 -7 -7 -7 -6 -6 -6 -6 -6 -6 -6 -6 -7 -7 -7 -7 -7 -7 -8 -8 -8 -9 -9 -10 -10 -10 -10 -10 -10
0 0 -0 -0 -1 -1 -2 -3 -4 -5 -5 -6 -6 -6 -7 -7 -7 -7 -7 -6 -6 -5 -5 -6 -7 -7 -7 -7 -7 -7 -7 -8 -8 -9 -9 -10 -10 -10 -11 -11 -11 -10 -10
-0 -0 -1 -1 -1 -2 -2 -4 -5 -5 -6 -6 -6 -7 -7 -7 -7 -7 -7 -7 -6 -5 -6 -6 -7 -7 -7 -7 -7 -8 -8 -9 -9 -9 -10 -10 -11 -11 -11 -11 -11 -11 -11
Wind_Speed
13 14 14 15 16 16 15 12 11 9 9 8 7 6 5 5 6 6 6 9 11 12 13 14 14 15 16 17 17 18 19 20 21 21 21 22 22 22 22 22 23 23 24
17 14 13 14 15 15 15 14 12 8 7 7 7 7 7 8 8 7 8 9 11 13 13 14 14 15 16 17 18 19 20 21 21 22 22 22 22 23 23 23 23 23 24
20 17 13 12 15 16 15 12 11 8 6 6 6 9 9 8 8 9 10 10 10 12 14 14 14 15 16 17 18 19 20 21 22 23 23 23 23 24 24 24 24 24 24
22 18 13 12 18 17 14 9 6 5 5 5 5 6 8 8 10 12 13 12 12 12 13 14 15 16 17 18 19 20 21 22 23 24 24 24 24 25 25 25 25 25 25
24 19 14 15 18 14 12 9 6 6 6 6 6 5 5 6 9 12 12 14 14 15 14 15 17 17 18 19 20 21 22 23 24 25 25 25 26 26 26 26 27 27 26
25 21 16 16 17 9 8 8 8 7 6 5 5 5 5 5 8 9 11 13 14 15 16 16 17 17 18 19 20 21 23 24 25 25 26 26 27 27 27 28 28 28 28
25 22 14 14 14 10 11 10 8 8 7 5 3 4 6 9 9 8 11 11 12 15 16 16 17 17 17 19 21 22 24 25 26 27 27 27 28 28 29 29 29 29 29
24 24 17 10 11 10 12 13 10 8 7 8 5 3 4 5 9 11 8 7 8 13 14 16 17 18 18 18 20 24 25 26 27 27 28 28 29 29 30 30 30 30 30
24 23 21 15 12 12 14 15 13 14 11 10 8 6 5 8 3 4 8 8 8 6 9 14 16 19 20 19 20 23 26 27 27 28 29 29 30 30 30 31 31 31 31
20 24 22 20 13 12 14 15 15 12 10 9 8 8 5 5 5 3 4 7 9 9 8 11 14 17 20 20 21 24 26 27 28 29 29 30 30 31 31 31 32 32 32
16 20 21 18 14 13 14 14 14 14 13 12 8 6 7 6 5 5 5 5 5 7 8 8 12 16 19 20 20 23 27 28 29 29 30 30 31 32 32 32 32 32 33
12 15 17 15 13 13 14 14 13 15 15 14 11 9 7 6 8 8 10 8 6 6 8 7 8 12 16 18 22 26 28 28 29 29 30 31 31 32 33 33 33 33 33
11 14 16 16 15 14 12 11 14 15 15 14 15 12 11 10 5 8 9 7 7 6 6 6 7 12 17 18 21 27 27 28 29 30 31 31 32 32 33 34 34 35 35
11 12 16 17 17 15 15 14 14 15 13 16 18 15 11 11 9 9 8 7 5 6 7 8 5 10 15 17 20 25 22 27 29 31 32 32 33 33 34 35 36 36 37
10 12 14 16 17 17 17 16 16 17 15 15 16 16 13 10 10 9 8 8 8 6 8 7 6 7 10 13 19 19 18 26 30 32 33 34 34 35 36 36 37 38 38
11 11 12 15 16 17 17 17 15 15 16 15 13 14 15 11 9 9 9 8 9 9 7 6 8 5 6 14 21 21 20 28 31 33 34 34 35 36 36 37 38 38 39
12 13 13 14 15 17 17 17 18 16 18 16 14 16 16 13 11 10 9 9 10 10 14 9 7 8 10 11 14 18 21 22 24 32 34 35 36 37 37 38 39 40 40
12 13 13 14 15 16 16 18 19 19 18 19 18 16 17 14 14 12 11 12 12 12 12 14 9 9 11 11 11 13 16 20 20 29 34 35 36 37 38 39 39 40 40
12 12 13 14 14 14 15 17 18 18 18 18 17 18 17 16 17 14 13 13 12 12 11 11 12 9 10 10 11 13 16 12 19 26 30 32 34 36 37 38 39 39 40
11 12 12 13 13 12 13 14 15 15 15 16 16 17 17 18 17 16 15 15 13 12 11 11 11 11 11 10 10 12 13 11 13 16 22 27 32 36 37 38 39 39 39
12 11 11 12 11 11 12 13 13 14 15 15 16 16 18 22 25 20 16 13 13 12 11 11 12 11 12 10 11 10 13 12 12 12 13 15 15 15 17 29 34 37 38
11 11 12 12 13 12 21 26 19 14 14 15 15 14 16 23 27 32 31 27 22 15 14 13 12 13 14 12 10 11 12 14 16 8 11 15 12 14 12 10 28 36 37
11 12 12 12 13 16 25 27 28 16 15 15 14 13 15 18 24 16 23 30 27 29 26 17 16 16 14 12 11 13 14 16 19 11 11 18 11 15 13 18 32 35 36
11 11 11 12 12 15 24 26 27 18 14 16 16 16 16 15 17 17 16 16 15 16 18 14 12 13 13 12 12 15 18 18 17 12 10 16 14 14 15 12 28 33 35
10 10 9 11 12 14 21 24 24 11 12 15 16 16 17 16 24 28 19 17 16 16 21 26 25 24 27 28 23 14 13 14 17 12 6 10 15 16 15 14 18 30 32
10 10 10 9 11 11 18 22 23 9 11 11 12 15 24 23 25 28 19 16 16 14 11 12 15 19 17 18 24 14 10 13 16 15 6 7 13 13 15 11 10 11 14
Wind_Direction
185 191 200 199 199 199 198 213 223 209 205 212 220 232 247 265 272 280 286 295 303 309 313 316 319 320 321 322 322 322 322 322 323 323 324 324 325 324 323 322 322 322 322
188 195 199 199 202 204 199 206 217 208 211 211 221 234 237 246 253 260 266 274 287 295 299 303 306 309 311 313 314 315 316 315 316 317 317 318 318 319 318 317 316 315 315
193 194 198 196 201 203 203 205 217 208 217 215 219 235 237 238 249 259 263 260 262 276 285 290 295 298 302 305 307 309 309 310 310 311 312 312 313 314 313 313 312 311 310
198 195 197 197 197 199 197 195 203 192 212 212 220 228 225 225 236 250 254 252 249 253 264 279 286 289 294 298 301 302 304 305 306 307 307 307 309 309 310 309 308 307 305
201 198 198 199 196 194 192 198 197 196 205 210 215 221 221 226 234 245 243 243 242 242 246 261 274 281 287 291 293 296 298 300 302 303 304 304 305 305 306 306 305 304 302
202 201 201 199 195 191 194 197 199 198 202 201 217 229 226 226 233 236 238 241 239 238 242 245 253 265 277 283 287 290 293 296 298 300 301 302 302 302 302 302 301 300 299
201 202 205 201 199 198 199 196 190 197 203 184 194 262 257 236 232 229 227 227 229 233 236 238 242 246 256 271 279 285 289 292 294 297 298 299 299 299 298 298 298 297 295
200 205 205 203 202 201 200 199 193 191 196 185 174 189 262 267 234 227 214 216 221 226 230 238 240 240 243 249 260 273 280 286 289 292 294 296 296 296 295 295 295 294 293
204 205 208 207 206 204 208 204 197 194 200 196 185 172 192 226 250 229 217 218 217 216 224 233 238 240 242 244 248 261 272 278 282 287 290 292 293 293 293 292 292 292 291
210 209 209 210 210 210 212 209 205 202 193 198 202 208 199 170 182 247 261 229 221 223 225 235 241 239 240 241 246 259 267 273 278 281 285 289 291 292 292 292 292 292 292
216 215 212 212 214 214 214 211 209 206 206 203 195 186 211 217 194 194 239 242 234 228 228 230 237 238 239 240 243 254 266 270 273 278 283 287 290 291 292 292 292 292 291
219 218 216 215 216 217 216 214 212 211 211 211 208 196 182 185 202 203 219 224 230 234 230 230 233 235 240 244 250 261 266 269 273 278 282 285 288 289 290 290 290 290 289
224 219 217 219 220 219 216 212 215 217 214 212 214 214 208 207 181 187 203 216 225 232 234 238 236 241 248 246 248 261 266 270 274 278 282 284 285 286 287 287 288 288 287
229 215 214 218 219 217 219 216 219 220 217 218 219 216 216 213 205 198 197 197 223 236 231 238 243 237 244 245 252 264 266 270 275 278 280 281 282 282 283 284 285 285 285
234 218 211 213 216 217 218 217 222 222 219 219 220 217 218 215 210 207 202 197 203 227 234 225 236 236 239 251 264 268 262 268 274 276 278 279 280 281 282 283 283 284 283
238 228 218 215 215 217 217 219 223 221 219 220 217 217 218 215 211 209 208 207 210 221 236 223 230 245 265 270 271 271 268 273 276 278 279 280 280 280 280 281 281 282 282
237 234 228 222 220 219 218 220 223 218 220 221 218 217 218 211 211 212 211 212 217 221 242 246 242 253 253 257 266 267 269 268 269 273 276 277 278 279 279 279 280 280 280
240 238 233 229 226 222 218 219 223 220 219 220 218 216 217 212 211 212 214 217 221 223 234 249 251 252 253 256 258 262 269 269 266 271 274 276 278 279 279 279 280 280 279
244 240 236 235 231 225 220 221 221 221 220 220 216 216 215 211 214 215 215 220 224 229 231 243 253 253 259 259 261 266 265 265 268 272 275 277 279 280 280 280 280 280 279
252 247 242 239 235 228 223 222 220 220 220 219 216 216 214 214 215 214 218 221 223 228 232 240 251 256 260 257 256 265 270 264 267 271 275 276 278 280 280 281 281 281 280
262 254 249 245 238 230 226 222 220 220 219 218 217 216 216 217 218 218 221 220 220 225 231 238 248 256 259 258 256 259 269 274 268 266 271 271 273 271 273 276 277 279 278
267 260 253 249 244 241 244 242 233 224 222 221 220 217 218 226 228 228 229 227 221 222 229 234 244 249 255 255 258 262 271 279 281 255 262 273 270 274 273 265 275 277 276
267 261 256 250 248 247 251 251 246 231 222 224 222 219 222 224 228 230 238 239 237 234 231 229 239 247 255 258 261 270 271 272 275 275 279 282 275 276 276 277 281 281 280
267 263 259 252 249 250 254 254 251 242 222 220 220 219 221 221 223 223 227 234 241 246 249 250 249 256 262 264 262 266 271 275 275 269 260 279 284 283 283 277 283 282 281
273 267 262 255 251 252 255 255 252 239 229 222 218 216 219 221 226 227 224 226 234 240 249 250 252 256 259 265 268 273 276 283 286 282 248 270 284 288 285 281 278 281 281
280 275 268 257 253 249 254 256 253 237 232 227 219 217 222 222 226 230 225 221 229 234 232 243 255 264 268 272 277 273 270 278 283 287 265 264 283 289 290 276 264 271 279
Height
1552 1553 1553 1553 1553 1553 1554 1554 1554 1553 1553 1553 1552 1552 1551 1550 1549 1548 1547 1547 1545 1544 1543 1541 1540 1539 1537 1536 1535 1534 1533 1532 1530 1529 1527 1526 1525 1523 1522 1521 1520 1519 1518
1548 1548 1548 1549 1549 1549 1549 1550 1550 1549 1549 1549 1548 1548 1547 1547 1546 1545 1544 1543 1542 1540 1539 1538 1536 1535 1534 1533 1532 1530 1529 1528 1526 1525 1523 1522 1520 1519 1518 1517 1516 1515 1514
1542 1543 1543 1543 1544 1545 1545 1545 1545 1545 1545 1544 1544 1543 1543 1542 1542 1541 1539 1538 1538 1537 1535 1534 1532 1531 1530 1529 1528 1526 1525 1523 1522 1520 1519 1518 1516 1515 1513 1512 1511 1510 1509
1536 1536 1537 1538 1539 1539 1539 1540 1540 1540 1540 1539 1539 1538 1538 1537 1537 1536 1535 1534 1533 1532 1531 1529 1528 1526 1525 1524 1523 1522 1520 1519 1517 1515 1514 1513 1511 1509 1508 1507 1506 1505 1504
1529 1530 1531 1532 1533 1533 1533 1534 1534 1534 1534 1534 1533 1533 1532 1532 1531 1531 1530 1529 1527 1526 1525 1524 1523 1521 1520 1519 1518 1517 1515 1514 1512 1510 1509 1507 1505 1504 1502 1501 1500 1499 1498
1522 1523 1524 1525 1526 1526 1526 1527 1527 1528 1528 1528 1527 1526 1526 1525 1525 1524 1524 1523 1522 1521 1520 1518 1517 1516 1514 1513 1512 1511 1510 1509 1507 1505 1503 1501 1499 1498 1496 1495 1493 1492 1492
1513 1515 1516 1517 1518 1518 1518 1520 1521 1521 1521 1522 1521 1519 1518 1518 1517 1517 1517 1516 1515 1515 1513 1512 1510 1509 1508 1507 1506 1505 1503 1502 1501 1499 1497 1495 1493 1491 1490 1489 1487 1486 1485
1504 1506 1507 1508 1510 1510 1511 1511 1512 1512 1513 1514 1514 1513 1511 1509 1507 1508 1509 1509 1509 1508 1507 1506 1504 1502 1501 1499 1498 1497 1496 1495 1494 1492 1490 1488 1487 1485 1484 1482 1481 1479 1478
1495 1496 1498 1499 1500 1501 1501 1501 1502 1503 1503 1504 1504 1506 1504 1500 1500 1499 1499 1500 1501 1501 1500 1499 1497 1496 1494 1492 1491 1490 1488 1487 1486 1485 1483 1482 1480 1478 1477 1475 1474 1472 1471
1488 1488 1488 1489 1490 1491 1491 1492 1493 1493 1494 1493 1493 1493 1495 1495 1495 1492 1491 1491 1492 1492 1492 1492 1490 1489 1487 1486 1484 1483 1481 1480 1479 1478 1476 1475 1473 1471 1469 1467 1466 1464 1463
1479 1479 1479 1480 1480 1480 1480 1482 1482 1483 1483 1483 1483 1482 1484 1485 1484 1484 1482 1482 1483 1483 1484 1484 1483 1482 1480 1479 1477 1476 1474 1473 1471 1470 1469 1467 1464 1462 1460 1458 1457 1455 1454
1471 1470 1471 1470 1470 1470 1470 1471 1472 1472 1472 1472 1473 1472 1471 1472 1471 1472 1472 1472 1473 1474 1475 1475 1474 1473 1473 1471 1470 1468 1467 1465 1464 1463 1460 1458 1455 1453 1451 1449 1447 1445 1444
1463 1461 1462 1461 1460 1460 1461 1461 1462 1461 1461 1461 1461 1461 1461 1461 1462 1463 1464 1463 1463 1464 1465 1466 1466 1465 1464 1463 1461 1460 1459 1458 1456 1454 1451 1449 1446 1443 1441 1439 1437 1435 1434
1456 1455 1454 1452 1451 1451 1451 1451 1451 1450 1450 1450 1450 1451 1451 1451 1453 1454 1455 1457 1455 1455 1454 1455 1457 1457 1456 1454 1453 1452 1450 1449 1447 1445 1442 1439 1437 1434 1432 1430 1427 1425 1423
1448 1447 1445 1443 1441 1441 1440 1440 1439 1438 1439 1439 1439 1440 1441 1442 1443 1445 1446 1448 1449 1445 1442 1445 1447 1447 1447 1446 1444 1442 1440 1439 1437 1435 1432 1430 1428 1425 1422 1420 1417 1415 1412
1439 1438 1436 1434 1432 1431 1430 1429 1428 1427 1428 1427 1428 1430 1430 1432 1434 1436 1437 1438 1438 1437 1433 1434 1437 1438 1438 1436 1434 1433 1431 1429 1428 1425 1423 1420 1418 1415 1412 1410 1407 1404 1402
1430 1428 1426 1424 1422 1420 1419 1418 1417 1417 1417 1417 1418 1419 1420 1423 1424 1426 1428 1429 1429 1429 1425 1424 1427 1428 1427 1426 1424 1423 1421 1418 1416 1414 1412 1410 1407 1405 1402 1399 1396 1393 1390
1421 1419 1416 1414 1411 1409 1408 1407 1405 1405 1405 1405 1406 1408 1409 1412 1414 1416 1418 1419 1420 1420 1418 1416 1417 1418 1418 1416 1414 1412 1410 1408 1406 1403 1401 1399 1397 1394 1391 1388 1385 1381 1378
1412 1409 1406 1403 1401 1399 1398 1396 1395 1394 1394 1394 1395 1397 1399 1402 1403 1406 1408 1410 1411 1412 1411 1409 1407 1409 1408 1407 1405 1402 1400 1398 1396 1393 1391 1389 1386 1383 1379 1376 1373 1369 1366
1403 1399 1396 1393 1391 1389 1388 1386 1385 1384 1384 1384 1385 1387 1389 1391 1393 1397 1399 1401 1402 1403 1403 1401 1400 1399 1398 1397 1396 1393 1390 1388 1386 1383 1380 1378 1374 1371 1367 1364 1360 1357 1353
1394 1390 1386 1383 1380 1378 1376 1376 1375 1374 1374 1374 1375 1376 1378 1381 1384 1387 1390 1391 1393 1394 1394 1393 1392 1391 1389 1388 1387 1385 1382 1378 1375 1373 1368 1364 1361 1356 1352 1349 1346 1342 1339
1384 1380 1376 1373 1370 1367 1366 1365 1364 1362 1362 1363 1364 1365 1368 1372 1375 1378 1381 1382 1384 1384 1384 1385 1383 1382 1379 1379 1379 1377 1374 1370 1363 1362 1359 1351 1350 1344 1339 1336 1332 1328 1324
1374 1370 1366 1362 1359 1357 1357 1355 1355 1353 1351 1352 1353 1356 1359 1361 1366 1368 1372 1375 1376 1376 1377 1377 1375 1373 1372 1371 1371 1368 1365 1360 1354 1350 1349 1339 1336 1331 1327 1323 1319 1315 1311
1365 1361 1356 1353 1349 1347 1346 1345 1345 1345 1342 1341 1343 1345 1348 1351 1355 1359 1362 1364 1365 1367 1369 1369 1367 1365 1365 1364 1363 1360 1355 1349 1344 1341 1339 1331 1324 1320 1315 1310 1306 1302 1298
1357 1353 1348 1344 1341 1338 1337 1336 1336 1334 1334 1332 1333 1336 1339 1341 1345 1350 1353 1354 1355 1357 1359 1359 1359 1357 1356 1356 1355 1352 1348 1343 1334 1329 1330 1324 1315 1309 1302 1296 1292 1290 1286
1350 1345 1340 1337 1333 1330 1329 1327 1327 1326 1325 1326 1326 1327 1330 1333 1337 1341 1344 1345 1346 1347 1350 1350 1350 1349 1348 1347 1346 1344 1340 1335 1327 1319 1317 1315 1307 1302 1291 1283 1281 1278 1275